DW2843 Weather Reports


Display with metric or nautical units.
time (UTC)temp
F
wind
direction
speed
MPH
gust
MPH
rain 1hr
in
rain 24hr
in
rain mn
in
humidity
%
barometer
mb
20260506082004 49 343 3.0 10.0 0.00 0.00 0.00 91 1012.5
20260506081005 48 358 1.0 6.0 0.00 0.00 0.00 91 1012.4
20260506073007 47 25 3.0 9.0 0.00 0.00 0.00 93 1012.5
20260506072005 47 3 3.0 6.0 0.00 0.00 0.00 94 1012.4
20260506071004 46 10 1.0 9.0 0.00 0.00 0.00 94 1012.3
20260506061004 43 296 3.0 9.0 0.00 0.00 0.00 95 1012.1
20260506051004 40 301 3.0 7.0 0.00 0.00 0.00 93 1011.9
20260506045005 39 299 3.0 4.0 0.00 0.00 0.00 92 1012.0
20260506044005 40 299 1.0 4.0 0.00 0.00 0.00 92 1011.9
20260506043004 40 299 1.0 4.0 0.00 0.00 0.00 92 1012.0
20260506041006 41 302 1.0 4.0 0.00 0.00 0.00 92 1012.0
20260506040005 41 298 1.0 4.0 0.00 0.00 0.00 92 1012.0
20260506035005 41 297 3.0 4.0 0.00 0.00 0.00 92 1012.0
20260506034006 42 0 0.0 3.0 0.00 0.00 0.00 92 1012.0
20260506033006 42 0 0.0 4.0 0.00 0.00 0.00 92 1012.2
20260506031005 43 0 0.0 3.0 0.00 0.00 0.00 91 1012.2
20260506030004 43 0 0.0 4.0 0.00 0.00 0.00 92 1012.4
20260506025005 43 0 0.0 3.0 0.00 0.00 0.00 91 1012.5
20260506024005 43 0 0.0 4.0 0.00 0.00 0.00 91 1012.5
20260506023004 43 0 0.0 4.0 0.00 0.00 0.00 91 1012.5
20260506022004 43 0 0.0 3.0 0.00 0.00 0.00 90 1012.6
20260506021004 44 0 0.0 3.0 0.00 0.00 0.00 90 1012.7
20260506020004 44 0 0.0 3.0 0.00 0.00 0.00 89 1012.7
20260506015006 44 0 0.0 3.0 0.00 0.00 0.00 89 1012.7
20260506014004 44 0 0.0 4.0 0.00 0.00 0.00 88 1012.6
20260506013006 45 0 0.0 4.0 0.00 0.00 0.00 88 1012.7
20260506012005 45 0 0.0 4.0 0.00 0.00 0.00 88 1012.7
20260506011004 46 0 0.0 4.0 0.00 0.00 0.00 88 1012.8
20260506010005 46 0 0.0 6.0 0.00 0.00 0.00 87 1012.8
20260506005005 47 8 1.0 9.0 0.00 0.00 0.00 87 1012.8
20260506004004 47 14 1.0 6.0 0.00 0.00 0.00 87 1012.9
20260506003005 47 0 0.0 4.0 0.00 0.00 0.00 86 1012.9
20260506002004 47 12 3.0 7.0 0.00 0.00 0.00 87 1012.9
20260506001005 48 21 3.0 9.0 0.00 0.00 0.00 87 1012.9
20260506000005 48 18 3.0 10.0 0.00 0.00 0.00 88 1012.9
20260505235006 48 17 3.0 6.0 0.00 0.00 0.00 88 1013.0
20260505234004 48 19 3.0 10.0 0.00 0.00 0.00 88 1013.1
20260505232004 48 15 3.0 9.0 0.00 0.00 0.00 88 1013.2
20260505231004 49 24 4.0 10.0 0.00 0.00 0.00 89 1013.3
20260505230005 49 23 3.0 13.0 0.00 0.00 0.00 89 1013.4
20260505225005 49 32 4.0 15.0 0.00 0.00 0.00 89 1013.4
20260505223006 49 19 1.0 6.0 0.00 0.00 0.00 89 1013.4
20260505222004 49 17 3.0 9.0 0.00 0.00 0.00 89 1013.4
20260505220005 49 26 1.0 6.0 0.00 0.00 0.00 89 1013.4
20260505215004 49 27 1.0 7.0 0.00 0.00 0.00 88 1013.3
20260505214004 49 25 3.0 13.0 0.00 0.00 0.00 88 1013.3
20260505213005 49 28 3.0 7.0 0.00 0.00 0.00 88 1013.4
20260505211005 49 40 3.0 7.0 0.00 0.00 0.00 87 1013.4
20260505210004 49 28 3.0 9.0 0.00 0.00 0.00 87 1013.4
20260505205005 49 18 3.0 4.0 0.00 0.00 0.00 86 1013.3
20260505204006 49 23 3.0 6.0 0.00 0.00 0.00 85 1013.4
20260505203005 49 30 3.0 6.0 0.00 0.00 0.00 85 1013.3
20260505202005 50 33 3.0 9.0 0.00 0.00 0.00 85 1013.3
20260505201004 50 36 3.0 7.0 0.00 0.00 0.00 85 1013.3
20260505200004 50 34 3.0 9.0 0.00 0.00 0.00 84 1013.1
20260505195005 50 21 3.0 10.0 0.00 0.00 0.00 83 1012.9
20260505194004 51 30 4.0 7.0 0.00 0.00 0.00 82 1012.8
20260505193005 51 22 4.0 13.0 0.00 0.00 0.00 81 1012.7
20260505192005 52 28 3.0 9.0 0.00 0.00 0.00 80 1012.6
20260505191005 52 47 3.0 9.0 0.00 0.00 0.00 79 1012.6
20260505190005 53 26 4.0 10.0 0.00 0.00 0.00 78 1012.5
20260505185004 53 36 3.0 12.0 0.00 0.00 0.00 78 1012.4
20260505184005 53 47 4.0 13.0 0.00 0.00 0.00 78 1012.4
20260505183005 54 53 3.0 13.0 0.00 0.00 0.00 78 1012.3
20260505181005 54 51 4.0 15.0 0.00 0.00 0.00 78 1012.3
20260505180005 54 45 4.0 12.0 0.00 0.00 0.00 78 1012.3
20260505175004 55 38 4.0 15.0 0.00 0.00 0.00 77 1012.2
20260505174004 55 35 4.0 15.0 0.00 0.00 0.00 77 1012.1
20260505173004 55 53 4.0 15.0 0.00 0.00 0.00 76 1012.1
20260505171005 55 55 4.0 12.0 0.00 0.00 0.00 76 1012.1
20260505170005 55 58 4.0 13.0 0.00 0.00 0.00 76 1012.1
20260505165006 55 44 3.0 12.0 0.00 0.00 0.00 76 1012.1
20260505164004 56 40 4.0 15.0 0.00 0.00 0.00 76 1012.1
20260505163007 56 47 4.0 15.0 0.00 0.00 0.00 75 1012.1
20260505162004 56 50 4.0 16.0 0.00 0.00 0.00 74 1011.9
20260505161004 58 55 4.0 13.0 0.00 0.00 0.00 72 1011.9
20260505153004 59 66 1.0 7.0 0.00 0.00 0.00 70 1011.9
20260505151004 59 77 1.0 7.0 0.00 0.00 0.00 69 1012.1
20260505125006 64 76 1.0 4.0 0.00 0.00 0.00 56 1012.0
20260505124005 65 63 1.0 7.0 0.00 0.00 0.00 55 1011.9
20260505123004 65 103 1.0 4.0 0.00 0.00 0.00 55 1012.1
20260505121004 63 52 4.0 7.0 0.00 0.00 0.00 55 1012.3
20260505120004 65 87 3.0 9.0 0.00 0.00 0.00 53 1012.3
20260505115005 66 197 3.0 4.0 0.00 0.00 0.00 53 1012.2
20260505114005 64 44 3.0 7.0 0.00 0.00 0.00 55 1012.3
20260505113005 64 44 3.0 7.0 0.00 0.00 0.00 53 1012.4
20260505112004 63 52 1.0 7.0 0.00 0.00 0.00 56 1012.5
20260505111005 63 44 3.0 9.0 0.00 0.00 0.00 55 1012.4
20260505102005 62 67 3.0 7.0 0.00 0.00 0.00 61 1013.1
20260505101005 61 63 3.0 9.0 0.00 0.00 0.00 64 1013.1
20260505100005 59 44 1.0 6.0 0.00 0.00 0.00 66 1013.1
20260505095004 58 26 4.0 10.0 0.00 0.00 0.00 68 1013.2
20260505094004 57 25 3.0 10.0 0.00 0.00 0.00 69 1013.2
20260505093004 56 45 1.0 4.0 0.00 0.00 0.00 71 1013.3
20260505090007 54 21 1.0 4.0 0.00 0.00 0.00 78 1013.3
20260505085005 54 20 1.0 4.0 0.00 0.00 0.00 81 1013.4
20260505084004 53 34 1.0 6.0 0.00 0.00 0.00 80 1013.4
20260505083005 52 43 1.0 4.0 0.00 0.00 0.00 84 1013.5